Location: Powder Track
(41.8531°N, 72.3584°W)
Time: 03:34:18
(UTC+00:00)

A-11 Canister half - Pass Details

Date: 02 August 2021
Orbit: 1526 x 1683 km, 47.3° (Epoch: 22 September)

Event Time Altitude Azimuth Distance (km) Brightness Sun altitude
Rises 00:25:36 0° 290° (WNW) 4,834 14.1 -3.9°
Reaches altitude 10° 00:30:20 10° 271° (W) 3,811 12.2 -4.7°
Maximum altitude 00:35:34 16° 237° (WSW) 3,307 11.1 -5.5°
Drops below altitude 10° 00:40:43 10° 203° (SSW) 3,736 11.0 -6.3°
Sets 00:45:20 0° 183° (S) 4,691 11.3 -7.1°
